Darstellungsparameter: Aktuell verwendete Einstellungen:
Skalierung der Graphiken ... ?
xyx+y,   Skalierungsfaktor:      Skalierung: Modus: x, Faktor: 1
Darstellungszeitraum ... ?
Vom - - bis: - -   Zeitraum: 03.06.2009 - 09.06.2009
Min/Max/Avg-Anzeige ... ?
Zeige MMA aktuell
Zeige MMA Monat
Zeige MMA alles
Zeige --A aktuell
Zeige --A Monat
Zeige --A alles
Keine MMA-Anzeige
MMA:
Keine MMA-Graphiken
MMA-Basis: 03.06.2009 - 09.06.2009
Quicknavigation für Darstellung... ?
Tage:      1T, 2T, 3T, 5T -1T -2T -3T -5T +1T +2T +3T +5T
Wochen: 1W, 2W, 3W -1W -2W -3W +1W +2W +3W
Monate: 1M, 3M, 6M -1M -3M -6M +1M +3M +6M
Jahre:    1J, 3J, 5J, 10J -1J -3J -5J -10J +1J +3J +5J +10J
Nutze für die Darstellung ... ?
Originaldaten oder Mittelwerte auf ...
Stundenbasis Tagesbasis Wochenbasis
Monatsbasis Jahresbasis      Datenbasis: Original-Daten
Darstellen als:
Statistik (Auto) Statistik J:M      Darstellung:
Zur Graphik,    zurück zur Übersicht aller Sensoren.
 
Tabellarische Datenbersicht: ?
 
Sensor: Nr:Datum:Temp:Abs-Feuchte:Windchill:Wind:
Aussen-T/F 1 03-06-2009 00:03:45 19.7 C 5.77 g/m*3 19.7 C 0 km/h
2 03-06-2009 00:15:45 19.4 C 5.67 g/m*3 19.4 C 0 km/h
3 03-06-2009 00:27:45 19 C 5.38 g/m*3 19 C 0 km/h
4 03-06-2009 00:39:44 18.6 C 5.57 g/m*3 18.6 C 0 km/h
5 03-06-2009 00:51:45 18.2 C 5.44 g/m*3 18.2 C 0 km/h
6 03-06-2009 01:03:44 17.9 C 5.5 g/m*3 17.9 C 0 km/h
7 03-06-2009 01:15:44 17.7 C 5.43 g/m*3 17.7 C 0 km/h
8 03-06-2009 01:27:44 17.3 C 5.3 g/m*3 17.3 C 0 km/h
9 03-06-2009 01:39:44 17.1 C 5.24 g/m*3 17.1 C 0 km/h
10 03-06-2009 01:51:44 16.8 C 5.29 g/m*3 16.8 C 0 km/h
11 03-06-2009 02:03:44 16.4 C 5.16 g/m*3 16.4 C 0 km/h
12 03-06-2009 02:15:43 16 C 5.18 g/m*3 16 C 0 km/h
13 03-06-2009 02:27:43 15.7 C 5.22 g/m*3 15.7 C 0 km/h
14 03-06-2009 02:39:44 15.4 C 5.65 g/m*3 15.4 C 0 km/h
15 03-06-2009 02:52:45 15.1 C 5.81 g/m*3 15.1 C 0 km/h
16 03-06-2009 03:04:45 15 C 5.77 g/m*3 15 C 0 km/h
17 03-06-2009 03:16:45 14.6 C 5.88 g/m*3 14.6 C 0 km/h
18 03-06-2009 03:28:45 14.4 C 5.81 g/m*3 14.4 C 0 km/h
19 03-06-2009 03:40:45 14.2 C 5.74 g/m*3 14.2 C 0 km/h
20 03-06-2009 03:52:45 13.8 C 5.96 g/m*3 13.8 C 0 km/h
21 03-06-2009 04:04:45 13.7 C 6.04 g/m*3 13.7 C 0 km/h
22 03-06-2009 04:16:44 13.6 C 6 g/m*3 13.6 C 0 km/h
23 03-06-2009 04:28:44 13.5 C 5.97 g/m*3 13.5 C 0 km/h
24 03-06-2009 04:40:45 13.3 C 6.01 g/m*3 13.3 C 0 km/h
25 03-06-2009 04:52:44 13.1 C 5.93 g/m*3 13.1 C 0 km/h
Sensor: Nr:Datum:Temp:Abs-Feuchte:Windchill:Wind:
Aussen-T/F 26 03-06-2009 05:04:44 13 C 5.9 g/m*3 13 C 0 km/h
27 03-06-2009 05:16:44 13 C 5.9 g/m*3 13 C 0 km/h
28 03-06-2009 05:28:44 12.8 C 5.94 g/m*3 12.8 C 0 km/h
29 03-06-2009 05:40:44 12.7 C 6.01 g/m*3 12.7 C 0 km/h
30 03-06-2009 05:52:44 12.7 C 6.01 g/m*3 12.7 C 0 km/h
31 03-06-2009 06:04:43 12.9 C 6.2 g/m*3 12.9 C 0 km/h
32 03-06-2009 06:16:43 13 C 6.24 g/m*3 13 C 0 km/h
33 03-06-2009 06:28:43 13 C 6.24 g/m*3 13 C 0 km/h
34 03-06-2009 06:40:43 13 C 6.35 g/m*3 13 C 0 km/h
35 03-06-2009 06:52:43 12.9 C 6.54 g/m*3 12.9 C 0 km/h
36 03-06-2009 07:04:42 12.8 C 6.27 g/m*3 12.8 C 0 km/h
37 03-06-2009 07:16:43 12.7 C 6.35 g/m*3 12.7 C 0 km/h
38 03-06-2009 07:28:43 12.5 C 6.05 g/m*3 12.5 C 0 km/h
39 03-06-2009 07:40:43 12.8 C 6.16 g/m*3 12.8 C 0 km/h
40 03-06-2009 07:52:42 12.9 C 6.2 g/m*3 12.9 C 0 km/h
41 03-06-2009 08:04:43 12.8 C 5.94 g/m*3 12.8 C 0 km/h
42 03-06-2009 08:16:42 12.8 C 5.94 g/m*3 12.8 C 0 km/h
43 03-06-2009 08:28:42 13 C 5.9 g/m*3 13 C 0 km/h
44 03-06-2009 08:40:42 13 C 5.67 g/m*3 13 C 0 km/h
45 03-06-2009 08:52:42 13.1 C 5.48 g/m*3 13.1 C 0 km/h
46 03-06-2009 09:04:42 13.5 C 5.5 g/m*3 13.5 C 0 km/h
47 03-06-2009 09:16:41 13.9 C 5.39 g/m*3 13.9 C 0 km/h
48 03-06-2009 09:28:41 13.9 C 5.04 g/m*3 13.9 C 0 km/h
49 03-06-2009 09:40:41 14.6 C 5.13 g/m*3 14.6 C 0 km/h
50 03-06-2009 09:52:41 14.7 C 5.67 g/m*3 14.7 C 0 km/h
Sensor: Nr:Datum:Temp:Abs-Feuchte:Windchill:Wind:
Aussen-T/F 51 03-06-2009 10:04:41 14.2 C 5.62 g/m*3 14.2 C 0 km/h
52 03-06-2009 10:16:41 14.9 C 5.23 g/m*3 14.9 C 0 km/h
53 03-06-2009 10:28:41 14.6 C 5.63 g/m*3 14.6 C 0 km/h
54 03-06-2009 10:40:41 15 C 5.39 g/m*3 15 C 0 km/h
55 03-06-2009 10:52:41 15.4 C 5.26 g/m*3 15.4 C 0 km/h
56 03-06-2009 11:04:40 14.9 C 5.23 g/m*3 14.9 C 0 km/h
57 03-06-2009 11:16:41 15.2 C 5.19 g/m*3 15.2 C 0 km/h
58 03-06-2009 11:28:41 16 C 5.31 g/m*3 16 C 0 km/h
59 03-06-2009 11:40:40 16.8 C 5.43 g/m*3 16.8 C 0 km/h
60 03-06-2009 11:52:40 17 C 5.21 g/m*3 17 C 0 km/h
61 03-06-2009 12:04:40 16.7 C 4.97 g/m*3 16.7 C 0 km/h
62 03-06-2009 12:16:40 16.8 C 4.86 g/m*3 16.8 C 0 km/h
63 03-06-2009 12:28:40 17.7 C 4.98 g/m*3 17.7 C 0 km/h
64 03-06-2009 12:40:39 17.9 C 4.73 g/m*3 17.9 C 0 km/h
65 03-06-2009 12:52:40 18.8 C 4.83 g/m*3 18.8 C 0 km/h
66 03-06-2009 13:04:40 17.3 C 4.42 g/m*3 17.3 C 0 km/h
67 03-06-2009 13:16:39 18.2 C 4.66 g/m*3 18.2 C 0 km/h
68 03-06-2009 13:28:39 19.5 C 4.53 g/m*3 19.5 C 0 km/h
69 03-06-2009 13:40:39 18.4 C 4.09 g/m*3 18.4 C 0 km/h
70 03-06-2009 13:52:39 19.8 C 4.27 g/m*3 19.8 C 0 km/h
71 03-06-2009 14:04:39 19.3 C 4.15 g/m*3 19.3 C 0 km/h
72 03-06-2009 14:16:38 20.1 C 4.35 g/m*3 20.1 C 0 km/h
73 03-06-2009 14:28:38 19.3 C 4.31 g/m*3 19.3 C 0 km/h
74 03-06-2009 14:40:39 19.1 C 4.43 g/m*3 19.1 C 0 km/h
75 03-06-2009 14:52:38 19.7 C 4.92 g/m*3 19.7 C 0 km/h
Sensor: Nr:Datum:Temp:Abs-Feuchte:Windchill:Wind:
Aussen-T/F 76 03-06-2009 15:04:38 20.5 C 4.45 g/m*3 20.5 C 0 km/h
77 03-06-2009 15:16:39 20 C 4.67 g/m*3 20 C 0 km/h
78 03-06-2009 15:28:39 20.8 C 4.53 g/m*3 20.8 C 0 km/h
79 03-06-2009 15:40:38 20.4 C 4.6 g/m*3 20.4 C 0 km/h
80 03-06-2009 15:52:37 20.9 C 4.55 g/m*3 20.9 C 0 km/h
81 03-06-2009 16:04:38 20.1 C 4.52 g/m*3 20.1 C 0 km/h
82 03-06-2009 16:16:38 20.4 C 4.42 g/m*3 20.4 C 0 km/h
83 03-06-2009 16:28:38 20.2 C 4.55 g/m*3 20.2 C 0 km/h
84 03-06-2009 16:40:37 20.3 C 4.75 g/m*3 20.3 C 0 km/h
85 03-06-2009 16:52:38 20 C 4.32 g/m*3 20 C 0 km/h
86 03-06-2009 17:04:37 20.3 C 4.57 g/m*3 20.3 C 0 km/h
87 03-06-2009 17:16:37 20.6 C 4.65 g/m*3 20.6 C 0 km/h
88 03-06-2009 17:28:37 20.7 C 4.32 g/m*3 20.7 C 0 km/h
89 03-06-2009 17:40:36 19.4 C 4.34 g/m*3 19.4 C 0 km/h
90 03-06-2009 17:52:37 20.6 C 4.12 g/m*3 20.6 C 0 km/h
91 03-06-2009 18:04:36 19.2 C 3.79 g/m*3 19.2 C 0 km/h
92 03-06-2009 18:16:36 20.3 C 4.05 g/m*3 20.3 C 0 km/h
93 03-06-2009 18:28:36 19.3 C 3.98 g/m*3 19.3 C 0 km/h
94 03-06-2009 18:40:37 20 C 4.32 g/m*3 20 C 0 km/h
95 03-06-2009 18:52:36 19 C 4.24 g/m*3 19 C 0 km/h
96 03-06-2009 19:04:36 19.1 C 4.26 g/m*3 19.1 C 0 km/h
97 03-06-2009 19:16:36 18.8 C 4.51 g/m*3 18.8 C 0 km/h
98 03-06-2009 19:28:36 18.1 C 4.64 g/m*3 18.1 C 0 km/h
99 03-06-2009 19:40:36 18 C 4.61 g/m*3 18 C 0 km/h
100 03-06-2009 19:52:36 18 C 4.76 g/m*3 18 C 0 km/h
Sensor: Nr:Datum:Temp:Abs-Feuchte:Windchill:Wind:
Aussen-T/F 101 03-06-2009 20:04:36 17.7 C 4.83 g/m*3 17.7 C 0 km/h
102 03-06-2009 20:16:36 16.9 C 5.03 g/m*3 16.9 C 0 km/h
103 03-06-2009 20:28:36 16.6 C 5.09 g/m*3 16.6 C 0 km/h
104 03-06-2009 20:40:35 16.4 C 5.02 g/m*3 16.4 C 0 km/h
105 03-06-2009 20:52:34 16.5 C 4.91 g/m*3 16.5 C 0 km/h
106 03-06-2009 21:04:35 16.1 C 4.8 g/m*3 16.1 C 0 km/h
107 03-06-2009 21:16:35 16 C 4.77 g/m*3 16 C 0 km/h
108 03-06-2009 21:28:35 15.9 C 4.88 g/m*3 15.9 C 0 km/h
109 03-06-2009 21:40:34 15.5 C 4.63 g/m*3 15.5 C 0 km/h
110 03-06-2009 21:52:35 15.4 C 4.73 g/m*3 15.4 C 0 km/h
111 03-06-2009 22:05:35 15.3 C 4.7 g/m*3 15.3 C 0 km/h
112 03-06-2009 22:17:35 15.2 C 4.67 g/m*3 15.2 C 0 km/h
113 03-06-2009 22:29:35 15 C 4.62 g/m*3 15 C 0 km/h
114 03-06-2009 22:41:35 14.7 C 4.78 g/m*3 14.7 C 0 km/h
115 03-06-2009 22:53:35 14.9 C 4.84 g/m*3 14.9 C 0 km/h
116 03-06-2009 23:05:35 14.8 C 4.69 g/m*3 14.8 C 0 km/h
117 03-06-2009 23:17:35 14.6 C 4.88 g/m*3 14.6 C 0 km/h
118 03-06-2009 23:29:36 14.5 C 4.97 g/m*3 14.5 C 0 km/h
119 03-06-2009 23:41:36 14.2 C 5.01 g/m*3 14.2 C 0 km/h
120 03-06-2009 23:53:36 14 C 5.07 g/m*3 14 C 0 km/h
121 04-06-2009 00:05:36 13.7 C 5.21 g/m*3 13.7 C 0 km/h
122 04-06-2009 00:17:36 13.7 C 5.33 g/m*3 13.7 C 0 km/h
123 04-06-2009 00:29:36 13.4 C 5.23 g/m*3 13.4 C 0 km/h
124 04-06-2009 00:41:36 13.1 C 5.14 g/m*3 13.1 C 0 km/h
125 04-06-2009 00:53:36 13 C 5.22 g/m*3 13 C 0 km/h
Sensor: Nr:Datum:Temp:Abs-Feuchte:Windchill:Wind:
Aussen-T/F 126 04-06-2009 01:05:36 12.7 C 5.34 g/m*3 12.7 C 0 km/h
127 04-06-2009 01:17:36 12.6 C 5.42 g/m*3 12.6 C 0 km/h
128 04-06-2009 01:29:36 12.7 C 5.45 g/m*3 12.7 C 0 km/h
129 04-06-2009 01:41:36 12.6 C 5.42 g/m*3 12.6 C 0 km/h
130 04-06-2009 01:53:36 12.5 C 5.5 g/m*3 12.5 C 0 km/h
131 04-06-2009 02:05:36 12.5 C 4.95 g/m*3 12.5 C 0 km/h
132 04-06-2009 02:17:36 12.4 C 4.7 g/m*3 12.4 C 0 km/h
133 04-06-2009 02:29:36 12 C 4.48 g/m*3 12 C 0 km/h
134 04-06-2009 02:41:36 11.9 C 4.45 g/m*3 11.9 C 0 km/h
135 04-06-2009 02:53:36 11.7 C 4.18 g/m*3 11.7 C 0 km/h
136 04-06-2009 03:05:36 11.5 C 4.13 g/m*3 11.5 C 0 km/h
137 04-06-2009 03:17:37 11.2 C 3.95 g/m*3 11.2 C 0 km/h
138 04-06-2009 03:29:37 11 C 4 g/m*3 11 C 0 km/h
139 04-06-2009 03:41:37 10.8 C 4.15 g/m*3 10.8 C 0 km/h
140 04-06-2009 03:53:37 10.9 C 4.28 g/m*3 10.9 C 0 km/h
141 04-06-2009 04:05:37 10.8 C 4.15 g/m*3 10.8 C 0 km/h
142 04-06-2009 04:17:37 10.7 C 4.22 g/m*3 10.7 C 0 km/h
143 04-06-2009 04:29:37 10.6 C 4.29 g/m*3 10.6 C 0 km/h
144 04-06-2009 04:41:37 10.6 C 4.39 g/m*3 10.6 C 0 km/h
145 04-06-2009 04:53:37 10.7 C 4.62 g/m*3 10.7 C 0 km/h
146 04-06-2009 05:05:37 10.5 C 4.85 g/m*3 10.5 C 0 km/h
147 04-06-2009 05:17:37 10.5 C 4.95 g/m*3 10.5 C 0 km/h
148 04-06-2009 05:29:37 10.6 C 5.08 g/m*3 10.6 C 0 km/h
149 04-06-2009 05:41:37 10.7 C 5.11 g/m*3 10.7 C 0 km/h
150 04-06-2009 05:53:37 10.7 C 5.01 g/m*3 10.7 C 0 km/h
Sensor: Nr:Datum:Temp:Abs-Feuchte:Windchill:Wind:
Aussen-T/F 151 04-06-2009 06:05:37 10.7 C 5.11 g/m*3 10.7 C 0 km/h
152 04-06-2009 06:17:37 10.7 C 5.01 g/m*3 10.7 C 0 km/h
153 04-06-2009 06:29:37 10.5 C 4.75 g/m*3 10.5 C 0 km/h
154 04-06-2009 06:41:37 10.6 C 4.78 g/m*3 10.6 C 0 km/h
155 04-06-2009 06:53:35 10.7 C 4.91 g/m*3 10.7 C 0 km/h
156 04-06-2009 07:05:35 10.7 C 4.91 g/m*3 10.7 C 0 km/h
157 04-06-2009 07:17:35 11 C 4.8 g/m*3 11 C 0 km/h
158 04-06-2009 07:29:35 10.8 C 5.04 g/m*3 10.8 C 0 km/h
159 04-06-2009 07:41:35 10.8 C 5.34 g/m*3 10.8 C 0 km/h
160 04-06-2009 07:53:35 11 C 5.31 g/m*3 11 C 0 km/h
161 04-06-2009 08:05:34 11.6 C 5.4 g/m*3 11.6 C 0 km/h
162 04-06-2009 08:17:34 11.8 C 5.37 g/m*3 11.8 C 0 km/h
163 04-06-2009 08:29:34 11.9 C 5.3 g/m*3 11.9 C 0 km/h
164 04-06-2009 08:41:34 12.2 C 5.18 g/m*3 12.2 C 0 km/h
165 04-06-2009 08:53:34 12.5 C 5.17 g/m*3 12.5 C 0 km/h
166 04-06-2009 09:05:33 13 C 4.88 g/m*3 13 C 0 km/h
167 04-06-2009 09:17:34 12.8 C 4.59 g/m*3 12.8 C 0 km/h
168 04-06-2009 09:29:34 12.3 C 4.13 g/m*3 12.3 C 0 km/h
169 04-06-2009 09:41:34 12.7 C 4.23 g/m*3 12.7 C 0 km/h
170 04-06-2009 09:53:33 12.9 C 4.51 g/m*3 12.9 C 0 km/h
171 04-06-2009 10:05:34 13 C 4.2 g/m*3 13 C 0 km/h
172 04-06-2009 10:17:33 13.1 C 4.45 g/m*3 13.1 C 0 km/h
173 04-06-2009 10:29:33 14.1 C 4.49 g/m*3 14.1 C 0 km/h
174 04-06-2009 10:41:33 13.5 C 4.33 g/m*3 13.5 C 0 km/h
175 04-06-2009 10:53:33 13.2 C 4.36 g/m*3 13.2 C 0 km/h
Sensor: Nr:Datum:Temp:Abs-Feuchte:Windchill:Wind:
Aussen-T/F 176 04-06-2009 11:05:33 14 C 4.46 g/m*3 14 C 0 km/h
177 04-06-2009 11:17:32 14.7 C 4.53 g/m*3 14.7 C 0 km/h
178 04-06-2009 11:29:32 13.3 C 4.04 g/m*3 13.3 C 0 km/h
179 04-06-2009 11:41:32 13.1 C 3.99 g/m*3 13.1 C 0 km/h
180 04-06-2009 11:53:32 13.5 C 4.33 g/m*3 13.5 C 0 km/h
181 04-06-2009 12:05:32 14.7 C 4.53 g/m*3 14.7 C 0 km/h
182 04-06-2009 12:17:32 14.5 C 4.35 g/m*3 14.5 C 0 km/h
183 04-06-2009 12:29:32 14.6 C 4.25 g/m*3 14.6 C 0 km/h
184 04-06-2009 12:41:32 14.4 C 3.96 g/m*3 14.4 C 0 km/h
185 04-06-2009 12:53:32 14.7 C 4.28 g/m*3 14.7 C 0 km/h
186 04-06-2009 13:05:31 14.7 C 4.41 g/m*3 14.7 C 0 km/h
187 04-06-2009 13:17:32 15.7 C 4.01 g/m*3 15.7 C 0 km/h
188 04-06-2009 13:29:32 15.6 C 3.72 g/m*3 15.6 C 0 km/h
189 04-06-2009 13:41:31 14.9 C 3.95 g/m*3 14.9 C 0 km/h
190 04-06-2009 13:53:31 14.4 C 3.96 g/m*3 14.4 C 0 km/h
191 04-06-2009 14:05:31 15.1 C 4.13 g/m*3 15.1 C 0 km/h
192 04-06-2009 14:17:31 16.2 C 4.14 g/m*3 16.2 C 0 km/h
193 04-06-2009 14:29:31 15.3 C 3.79 g/m*3 15.3 C 0 km/h
194 04-06-2009 14:41:31 14.8 C 3.67 g/m*3 14.8 C 0 km/h
195 04-06-2009 14:53:30 15.8 C 3.9 g/m*3 15.8 C 0 km/h
196 04-06-2009 15:05:30 16.3 C 4.16 g/m*3 16.3 C 0 km/h
197 04-06-2009 15:17:30 17.5 C 3.88 g/m*3 17.5 C 0 km/h
198 04-06-2009 15:29:30 16.1 C 3.56 g/m*3 16.1 C 0 km/h
199 04-06-2009 15:41:30 15.9 C 3.79 g/m*3 15.9 C 0 km/h
200 04-06-2009 15:53:30 16.4 C 3.77 g/m*3 16.4 C 0 km/h
Sensor: Nr:Datum:Temp:Abs-Feuchte:Windchill:Wind:
Aussen-T/F 201 04-06-2009 16:05:30 16.3 C 3.75 g/m*3 16.3 C 0 km/h
202 04-06-2009 16:17:30 16.2 C 3.59 g/m*3 16.2 C 0 km/h
203 04-06-2009 16:29:30 17.2 C 3.66 g/m*3 17.2 C 0 km/h
204 04-06-2009 16:41:30 16.5 C 3.51 g/m*3 16.5 C 0 km/h
205 04-06-2009 16:53:29 16.2 C 3.72 g/m*3 16.2 C 0 km/h
206 04-06-2009 17:05:29 16.1 C 3.84 g/m*3 16.1 C 0 km/h
207 04-06-2009 17:17:29 16.4 C 3.91 g/m*3 16.4 C 0 km/h
208 04-06-2009 17:29:29 15.6 C 3.86 g/m*3 15.6 C 0 km/h
209 04-06-2009 17:41:29 15.6 C 3.99 g/m*3 15.6 C 0 km/h
210 04-06-2009 17:53:28 16.2 C 4.14 g/m*3 16.2 C 0 km/h
211 04-06-2009 18:05:29 16 C 4.09 g/m*3 16 C 0 km/h
212 04-06-2009 18:17:29 15.8 C 4.17 g/m*3 15.8 C 0 km/h
213 04-06-2009 18:29:29 16.1 C 4.25 g/m*3 16.1 C 0 km/h
214 04-06-2009 18:41:29 15.4 C 4.07 g/m*3 15.4 C 0 km/h
215 04-06-2009 18:53:28 15.7 C 4.28 g/m*3 15.7 C 0 km/h
216 04-06-2009 19:05:28 15.3 C 4.18 g/m*3 15.3 C 0 km/h
217 04-06-2009 19:17:28 15.4 C 4.2 g/m*3 15.4 C 0 km/h
218 04-06-2009 19:29:28 15.4 C 4.34 g/m*3 15.4 C 0 km/h
219 04-06-2009 19:41:28 14.7 C 4.41 g/m*3 14.7 C 0 km/h
220 04-06-2009 19:53:28 15.1 C 4.52 g/m*3 15.1 C 0 km/h
221 04-06-2009 20:05:28 14.9 C 4.59 g/m*3 14.9 C 0 km/h
222 04-06-2009 20:17:27 14.9 C 4.59 g/m*3 14.9 C 0 km/h
223 04-06-2009 20:29:27 14.7 C 4.66 g/m*3 14.7 C 0 km/h
224 04-06-2009 20:41:27 14.5 C 4.73 g/m*3 14.5 C 0 km/h
225 04-06-2009 20:53:27 14.1 C 4.61 g/m*3 14.1 C 0 km/h
Sensor: Nr:Datum:Temp:Abs-Feuchte:Windchill:Wind:
Aussen-T/F 226 04-06-2009 21:05:27 14 C 4.7 g/m*3 14 C 0 km/h
227 04-06-2009 21:17:27 13.8 C 4.77 g/m*3 13.8 C 0 km/h
228 04-06-2009 21:29:27 13.7 C 4.86 g/m*3 13.7 C 0 km/h
229 04-06-2009 21:41:27 13.5 C 4.91 g/m*3 13.5 C 0 km/h
230 04-06-2009 21:53:27 13.5 C 5.03 g/m*3 13.5 C 0 km/h
231 04-06-2009 22:06:22 13.3 C 4.97 g/m*3 13.3 C 0 km/h
232 04-06-2009 22:18:22 13.2 C 4.94 g/m*3 13.2 C 0 km/h
233 04-06-2009 22:30:22 13 C 4.99 g/m*3 13 C 0 km/h
234 04-06-2009 22:42:22 13 C 4.88 g/m*3 13 C 0 km/h
235 04-06-2009 22:54:22 12.9 C 4.96 g/m*3 12.9 C 0 km/h
236 04-06-2009 23:06:22 12.7 C 5.01 g/m*3 12.7 C 0 km/h
237 04-06-2009 23:18:22 12.4 C 4.92 g/m*3 12.4 C 0 km/h
238 04-06-2009 23:30:22 12.2 C 4.86 g/m*3 12.2 C 0 km/h
239 04-06-2009 23:42:22 12.1 C 4.93 g/m*3 12.1 C 0 km/h
240 04-06-2009 23:54:22 12 C 5.01 g/m*3 12 C 0 km/h
241 05-06-2009 00:06:22 11.7 C 5.12 g/m*3 11.7 C 0 km/h
242 05-06-2009 00:18:22 11.7 C 5.12 g/m*3 11.7 C 0 km/h
243 05-06-2009 00:30:22 11.6 C 5.09 g/m*3 11.6 C 0 km/h
244 05-06-2009 00:42:22 11.4 C 4.82 g/m*3 11.4 C 0 km/h
245 05-06-2009 00:54:22 11.2 C 4.76 g/m*3 11.2 C 0 km/h
246 05-06-2009 01:06:22 11.2 C 4.66 g/m*3 11.2 C 0 km/h
247 05-06-2009 01:18:22 11.1 C 4.63 g/m*3 11.1 C 0 km/h
248 05-06-2009 01:30:22 11 C 4.6 g/m*3 11 C 0 km/h
249 05-06-2009 01:42:22 10.9 C 4.67 g/m*3 10.9 C 0 km/h
250 05-06-2009 01:54:23 10.8 C 4.65 g/m*3 10.8 C 0 km/h
Sensor: Nr:Datum:Temp:Abs-Feuchte:Windchill:Wind:
Aussen-T/F 251 05-06-2009 02:06:23 10.7 C 4.71 g/m*3 10.7 C 0 km/h
252 05-06-2009 02:18:23 10.4 C 4.72 g/m*3 10.4 C 0 km/h
253 05-06-2009 02:30:23 10 C 4.7 g/m*3 10 C 0 km/h
254 05-06-2009 02:42:23 9.6 C 4.76 g/m*3 9.6 C 0 km/h
255 05-06-2009 02:54:23 9.2 C 4.91 g/m*3 9.2 C 0 km/h
256 05-06-2009 03:06:23 9.2 C 5 g/m*3 9.2 C 0 km/h
257 05-06-2009 03:18:23 9.3 C 5.03 g/m*3 9.3 C 0 km/h
258 05-06-2009 03:30:23 9.2 C 5 g/m*3 9.2 C 0 km/h
259 05-06-2009 03:42:23 9 C 5.11 g/m*3 9 C 0 km/h
260 05-06-2009 03:54:23 8.6 C 5.16 g/m*3 8.6 C 0 km/h
261 05-06-2009 04:06:23 8.6 C 5.16 g/m*3 8.6 C 0 km/h
262 05-06-2009 04:18:23 8.6 C 5.24 g/m*3 8.6 C 0 km/h
263 05-06-2009 04:30:23 8.5 C 5.21 g/m*3 8.5 C 0 km/h
264 05-06-2009 04:42:23 8.5 C 5.29 g/m*3 8.5 C 0 km/h
265 05-06-2009 04:54:23 8.5 C 5.38 g/m*3 8.5 C 0 km/h
266 05-06-2009 05:06:23 8.4 C 5.34 g/m*3 8.4 C 0 km/h
267 05-06-2009 05:18:23 8.1 C 5.33 g/m*3 8.1 C 0 km/h
268 05-06-2009 05:30:23 8.2 C 5.44 g/m*3 8.2 C 0 km/h
269 05-06-2009 05:42:23 8.4 C 5.6 g/m*3 8.4 C 0 km/h
270 05-06-2009 05:54:24 8.5 C 5.64 g/m*3 8.5 C 0 km/h
271 05-06-2009 06:06:24 8.5 C 5.72 g/m*3 8.5 C 0 km/h
272 05-06-2009 06:18:24 8.5 C 5.64 g/m*3 8.5 C 0 km/h
273 05-06-2009 06:30:24 8.5 C 5.72 g/m*3 8.5 C 0 km/h
274 05-06-2009 06:42:24 8.5 C 5.72 g/m*3 8.5 C 0 km/h
275 05-06-2009 06:54:24 8.7 C 5.79 g/m*3 8.7 C 0 km/h
Sensor: Nr:Datum:Temp:Abs-Feuchte:Windchill:Wind:
Aussen-T/F 276 05-06-2009 07:06:28 8.8 C 5.83 g/m*3 8.8 C 0 km/h
277 05-06-2009 07:18:27 8.9 C 5.78 g/m*3 8.9 C 0 km/h
278 05-06-2009 07:30:28 9.2 C 5.63 g/m*3 9.2 C 0 km/h
279 05-06-2009 07:42:28 10 C 5.64 g/m*3 10 C 0 km/h
280 05-06-2009 07:54:27 10.2 C 5.52 g/m*3 10.2 C 0 km/h
281 05-06-2009 08:06:27 10.5 C 5.63 g/m*3 10.5 C 0 km/h
282 05-06-2009 08:18:27 10.8 C 5.63 g/m*3 10.8 C 0 km/h
283 05-06-2009 08:30:27 10.6 C 5.56 g/m*3 10.6 C 0 km/h
284 05-06-2009 08:42:27 10.2 C 5.61 g/m*3 10.2 C 0 km/h
285 05-06-2009 08:54:26 10.4 C 5.78 g/m*3 10.4 C 0 km/h
286 05-06-2009 09:06:27 11.5 C 5.78 g/m*3 11.5 C 0 km/h
287 05-06-2009 09:18:26 12.3 C 5.43 g/m*3 12.3 C 0 km/h
288 05-06-2009 09:30:26 12.7 C 5.12 g/m*3 12.7 C 0 km/h
289 05-06-2009 09:42:26 11.8 C 4.95 g/m*3 11.8 C 0 km/h
290 05-06-2009 09:54:26 12.1 C 5.25 g/m*3 12.1 C 0 km/h
291 05-06-2009 10:06:26 12.7 C 5.12 g/m*3 12.7 C 0 km/h
292 05-06-2009 10:18:25 13.1 C 5.02 g/m*3 13.1 C 0 km/h
293 05-06-2009 10:30:26 12.3 C 4.67 g/m*3 12.3 C 0 km/h
294 05-06-2009 10:42:26 13.3 C 4.97 g/m*3 13.3 C 0 km/h
295 05-06-2009 10:54:26 12.6 C 4.54 g/m*3 12.6 C 0 km/h
296 05-06-2009 11:06:25 12.3 C 4.56 g/m*3 12.3 C 0 km/h
297 05-06-2009 11:18:26 13 C 4.76 g/m*3 13 C 0 km/h
298 05-06-2009 11:30:25 13.4 C 4.65 g/m*3 13.4 C 0 km/h
299 05-06-2009 11:42:25 14 C 4.34 g/m*3 14 C 0 km/h
300 05-06-2009 11:54:25 14.3 C 4.18 g/m*3 14.3 C 0 km/h
Sensor: Nr:Datum:Temp:Abs-Feuchte:Windchill:Wind:
Aussen-T/F 301 05-06-2009 12:06:24 14.6 C 4.38 g/m*3 14.6 C 0 km/h
302 05-06-2009 12:18:25 15.3 C 4.44 g/m*3 15.3 C 0 km/h
303 05-06-2009 12:30:25 15.6 C 4.26 g/m*3 15.6 C 0 km/h
304 05-06-2009 12:42:25 16.1 C 4.25 g/m*3 16.1 C 0 km/h
305 05-06-2009 12:54:24 16.6 C 4.38 g/m*3 16.6 C 0 km/h
306 05-06-2009 13:06:25 18.5 C 4.43 g/m*3 18.5 C 0 km/h
307 05-06-2009 13:18:24 17.7 C 4.22 g/m*3 17.7 C 0 km/h
308 05-06-2009 13:30:24 17.2 C 4.25 g/m*3 17.2 C 0 km/h
309 05-06-2009 13:42:25 16.6 C 4.1 g/m*3 16.6 C 0 km/h
310 05-06-2009 13:54:24 16.2 C 4 g/m*3 16.2 C 0 km/h
311 05-06-2009 14:06:24 16.5 C 4.07 g/m*3 16.5 C 0 km/h
312 05-06-2009 14:18:23 16.8 C 4.15 g/m*3 16.8 C 0 km/h
313 05-06-2009 14:30:23 16.6 C 3.96 g/m*3 16.6 C 0 km/h
314 05-06-2009 14:42:23 16.2 C 3.86 g/m*3 16.2 C 0 km/h
315 05-06-2009 14:54:23 16.4 C 4.19 g/m*3 16.4 C 0 km/h
316 05-06-2009 15:06:23 16.8 C 4.15 g/m*3 16.8 C 0 km/h
317 05-06-2009 15:18:23 16.4 C 3.77 g/m*3 16.4 C 0 km/h
318 05-06-2009 15:30:23 16 C 3.95 g/m*3 16 C 0 km/h
319 05-06-2009 15:42:23 15.9 C 3.93 g/m*3 15.9 C 0 km/h
320 05-06-2009 15:54:23 15.6 C 3.72 g/m*3 15.6 C 0 km/h
321 05-06-2009 16:06:22 16.8 C 3.86 g/m*3 16.8 C 0 km/h
322 05-06-2009 16:18:22 17.6 C 4.05 g/m*3 17.6 C 0 km/h
323 05-06-2009 16:30:23 18.4 C 4.09 g/m*3 18.4 C 0 km/h
324 05-06-2009 16:42:23 18.9 C 4.05 g/m*3 18.9 C 0 km/h
325 05-06-2009 16:54:22 20.1 C 4 g/m*3 20.1 C 0 km/h
Sensor: Nr:Datum:Temp:Abs-Feuchte:Windchill:Wind:
Aussen-T/F 326 05-06-2009 17:06:21 20 C 3.46 g/m*3 20 C 0 km/h
327 05-06-2009 17:18:22 18.4 C 3.3 g/m*3 18.4 C 0 km/h
328 05-06-2009 17:30:22 20.4 C 3.71 g/m*3 20.4 C 0 km/h
329 05-06-2009 17:42:22 20.7 C 3.6 g/m*3 20.7 C 0 km/h
330 05-06-2009 17:54:21 22 C 3.88 g/m*3 22 C 0 km/h
331 05-06-2009 18:06:22 22.9 C 4.09 g/m*3 22.9 C 0 km/h
332 05-06-2009 18:18:21 22.9 C 4.09 g/m*3 22.9 C 0 km/h
333 05-06-2009 18:30:21 22.1 C 3.9 g/m*3 22.1 C 0 km/h
334 05-06-2009 18:42:21 21 C 3.66 g/m*3 21 C 0 km/h
335 05-06-2009 18:54:21 20.7 C 3.6 g/m*3 20.7 C 0 km/h
336 05-06-2009 19:06:21 21 C 3.66 g/m*3 21 C 0 km/h
337 05-06-2009 19:18:20 20.2 C 3.5 g/m*3 20.2 C 0 km/h
338 05-06-2009 19:30:20 18.5 C 3.48 g/m*3 18.5 C 0 km/h
339 05-06-2009 19:42:20 17.7 C 3.92 g/m*3 17.7 C 0 km/h
340 05-06-2009 19:54:20 17.9 C 3.97 g/m*3 17.9 C 0 km/h
341 05-06-2009 20:06:20 17.7 C 4.07 g/m*3 17.7 C 0 km/h
342 05-06-2009 20:18:20 17.2 C 4.25 g/m*3 17.2 C 0 km/h
343 05-06-2009 20:30:20 16.9 C 4.6 g/m*3 16.9 C 0 km/h
344 05-06-2009 20:42:20 16 C 4.63 g/m*3 16 C 0 km/h
345 05-06-2009 20:54:20 15 C 4.62 g/m*3 15 C 0 km/h
346 05-06-2009 21:06:20 14.2 C 4.76 g/m*3 14.2 C 0 km/h
347 05-06-2009 21:18:20 13.4 C 4.77 g/m*3 13.4 C 0 km/h
348 05-06-2009 21:30:19 13 C 4.65 g/m*3 13 C 0 km/h
349 05-06-2009 21:42:19 12.7 C 4.9 g/m*3 12.7 C 0 km/h
350 05-06-2009 21:54:20 12.2 C 4.86 g/m*3 12.2 C 0 km/h
Sensor: Nr:Datum:Temp:Abs-Feuchte:Windchill:Wind:
Aussen-T/F 351 05-06-2009 22:06:19 11.9 C 4.87 g/m*3 11.9 C 0 km/h
352 05-06-2009 22:18:19 11.8 C 5.05 g/m*3 11.8 C 0 km/h
353 05-06-2009 22:31:19 11.4 C 5.03 g/m*3 11.4 C 0 km/h
354 05-06-2009 22:43:19 11.1 C 5.04 g/m*3 11.1 C 0 km/h
355 05-06-2009 22:55:19 11 C 5.1 g/m*3 11 C 0 km/h
356 05-06-2009 23:07:19 10.8 C 5.14 g/m*3 10.8 C 0 km/h
357 05-06-2009 23:19:19 10.5 C 5.14 g/m*3 10.5 C 0 km/h
358 05-06-2009 23:31:19 10.4 C 5.2 g/m*3 10.4 C 0 km/h
359 05-06-2009 23:43:19 10.1 C 5.2 g/m*3 10.1 C 0 km/h
360 05-06-2009 23:55:20 10 C 5.17 g/m*3 10 C 0 km/h
361 06-06-2009 00:07:20 9.8 C 5.29 g/m*3 9.8 C 0 km/h
362 06-06-2009 00:19:20 9.7 C 5.35 g/m*3 9.7 C 0 km/h
363 06-06-2009 00:31:20 9.5 C 5.37 g/m*3 9.5 C 0 km/h
364 06-06-2009 00:43:20 9.1 C 5.32 g/m*3 9.1 C 0 km/h
365 06-06-2009 00:55:20 8.9 C 5.43 g/m*3 8.9 C 0 km/h
366 06-06-2009 01:07:20 8.8 C 5.4 g/m*3 8.8 C 0 km/h
367 06-06-2009 01:19:20 8.6 C 5.33 g/m*3 8.6 C 0 km/h
368 06-06-2009 01:31:20 8.6 C 5.41 g/m*3 8.6 C 0 km/h
369 06-06-2009 01:43:20 8.5 C 5.55 g/m*3 8.5 C 0 km/h
370 06-06-2009 01:55:20 8.3 C 5.48 g/m*3 8.3 C 0 km/h
371 06-06-2009 02:07:20 8.2 C 5.53 g/m*3 8.2 C 0 km/h
372 06-06-2009 02:19:20 8.1 C 5.49 g/m*3 8.1 C 0 km/h
373 06-06-2009 02:31:20 8.1 C 5.57 g/m*3 8.1 C 0 km/h
374 06-06-2009 02:43:20 8.1 C 5.66 g/m*3 8.1 C 0 km/h
375 06-06-2009 02:55:20 8.1 C 5.66 g/m*3 8.1 C 0 km/h
Sensor: Nr:Datum:Temp:Abs-Feuchte:Windchill:Wind:
Aussen-T/F 376 06-06-2009 03:07:20 8 C 5.79 g/m*3 8 C 0 km/h
377 06-06-2009 03:19:20 7.8 C 5.79 g/m*3 7.8 C 0 km/h
378 06-06-2009 03:31:20 7.6 C 5.8 g/m*3 7.6 C 0 km/h
379 06-06-2009 03:43:20 7.5 C 5.84 g/m*3 7.5 C 0 km/h
380 06-06-2009 03:55:20 7.4 C 5.81 g/m*3 7.4 C 0 km/h
381 06-06-2009 04:07:21 7.4 C 5.81 g/m*3 7.4 C 0 km/h
382 06-06-2009 04:19:21 7.4 C 5.81 g/m*3 7.4 C 0 km/h
383 06-06-2009 04:31:21 7.3 C 5.85 g/m*3 7.3 C 0 km/h
384 06-06-2009 04:43:21 7.1 C 5.77 g/m*3 7.1 C 0 km/h
385 06-06-2009 04:55:21 7.2 C 5.89 g/m*3 7.2 C 0 km/h
386 06-06-2009 05:07:21 7.4 C 5.96 g/m*3 7.4 C 0 km/h
387 06-06-2009 05:19:21 7.6 C 6.04 g/m*3 7.6 C 0 km/h
388 06-06-2009 05:31:21 7.8 C 6.04 g/m*3 7.8 C 0 km/h
389 06-06-2009 05:43:21 8 C 6.04 g/m*3 8 C 0 km/h
390 06-06-2009 05:55:21 8.1 C 6.07 g/m*3 8.1 C 0 km/h
391 06-06-2009 06:07:21 8.2 C 6.11 g/m*3 8.2 C 0 km/h
392 06-06-2009 06:19:21 8.4 C 6.19 g/m*3 8.4 C 0 km/h
393 06-06-2009 06:31:21 8.7 C 6.23 g/m*3 8.7 C 0 km/h
394 06-06-2009 06:43:21 8.7 C 6.05 g/m*3 8.7 C 0 km/h
395 06-06-2009 06:55:21 8.9 C 6.13 g/m*3 8.9 C 0 km/h
396 06-06-2009 07:07:21 8.9 C 6.13 g/m*3 8.9 C 0 km/h
397 06-06-2009 07:19:21 8.9 C 6.13 g/m*3 8.9 C 0 km/h
398 06-06-2009 07:31:21 8.6 C 6.27 g/m*3 8.6 C 0 km/h
399 06-06-2009 07:43:21 8.6 C 6.44 g/m*3 8.6 C 0 km/h
400 06-06-2009 07:55:21 8.6 C 6.62 g/m*3 8.6 C 0 km/h
Sensor: Nr:Datum:Temp:Abs-Feuchte:Windchill:Wind:
Aussen-T/F 401 06-06-2009 08:07:22 8.6 C 6.79 g/m*3 8.6 C 0 km/h
402 06-06-2009 08:19:22 8.6 C 6.96 g/m*3 8.6 C 0 km/h
403 06-06-2009 08:31:22 8.3 C 7.08 g/m*3 8.3 C 0 km/h
404 06-06-2009 08:43:22 8.3 C 7.33 g/m*3 8.3 C 0 km/h
405 06-06-2009 08:55:22 8.2 C 7.37 g/m*3 8.2 C 0 km/h
406 06-06-2009 09:07:19 8.5 C 7.6 g/m*3 8.5 C 0 km/h
407 06-06-2009 09:19:19 8.4 C 7.63 g/m*3 8.4 C 0 km/h
408 06-06-2009 09:31:20 8.7 C 7.78 g/m*3 8.7 C 0 km/h
409 06-06-2009 09:43:20 8.7 C 7.87 g/m*3 8.7 C 0 km/h
410 06-06-2009 09:55:19 8.9 C 7.97 g/m*3 8.9 C 0 km/h
411 06-06-2009 10:07:19 9.1 C 7.99 g/m*3 9.1 C 0 km/h
412 06-06-2009 10:19:19 9.1 C 7.99 g/m*3 9.1 C 0 km/h
413 06-06-2009 10:31:19 8.9 C 7.97 g/m*3 8.9 C 0 km/h
414 06-06-2009 10:43:19 9 C 7.93 g/m*3 9 C 0 km/h
415 06-06-2009 10:55:18 9 C 7.93 g/m*3 9 C 0 km/h
416 06-06-2009 11:07:19 9 C 7.93 g/m*3 9 C 0 km/h
417 06-06-2009 11:19:18 9 C 7.93 g/m*3 9 C 0 km/h
418 06-06-2009 11:31:18 9.2 C 8.13 g/m*3 9.2 C 0 km/h
419 06-06-2009 11:43:18 9.2 C 8.13 g/m*3 9.2 C 0 km/h
420 06-06-2009 11:55:18 9 C 8.02 g/m*3 9 C 0 km/h
421 06-06-2009 12:07:17 9.2 C 8.13 g/m*3 9.2 C 0 km/h
422 06-06-2009 12:19:18 9.4 C 8.32 g/m*3 9.4 C 0 km/h
423 06-06-2009 12:31:18 9.3 C 8.27 g/m*3 9.3 C 0 km/h
424 06-06-2009 12:43:18 9.3 C 8.27 g/m*3 9.3 C 0 km/h
425 06-06-2009 12:55:17 9.5 C 8.37 g/m*3 9.5 C 0 km/h
Sensor: Nr:Datum:Temp:Abs-Feuchte:Windchill:Wind:
Aussen-T/F 426 06-06-2009 13:07:18 9.6 C 8.43 g/m*3 9.6 C 0 km/h
427 06-06-2009 13:19:17 9.7 C 8.48 g/m*3 9.7 C 0 km/h
428 06-06-2009 13:31:17 9.7 C 8.57 g/m*3 9.7 C 0 km/h
429 06-06-2009 13:43:17 9.7 C 8.57 g/m*3 9.7 C 0 km/h
430 06-06-2009 13:55:17 9.6 C 8.52 g/m*3 9.6 C 0 km/h
431 06-06-2009 14:07:17 9.8 C 8.63 g/m*3 9.8 C 0 km/h
432 06-06-2009 14:19:16 9.8 C 8.63 g/m*3 9.8 C 0 km/h
433 06-06-2009 14:31:16 9.8 C 8.63 g/m*3 9.8 C 0 km/h
434 06-06-2009 14:43:16 9.6 C 8.43 g/m*3 9.6 C 0 km/h
435 06-06-2009 14:55:16 9.5 C 8.37 g/m*3 9.5 C 0 km/h
436 06-06-2009 15:07:16 9.5 C 8.37 g/m*3 9.5 C 0 km/h
437 06-06-2009 15:19:15 9.4 C 8.32 g/m*3 9.4 C 0 km/h
438 06-06-2009 15:31:16 9.5 C 8.37 g/m*3 9.5 C 0 km/h
439 06-06-2009 15:43:16 9.7 C 8.57 g/m*3 9.7 C 0 km/h
440 06-06-2009 15:55:15 9.8 C 8.63 g/m*3 9.8 C 0 km/h
441 06-06-2009 16:07:15 10.1 C 8.7 g/m*3 10.1 C 0 km/h
442 06-06-2009 16:19:16 10.1 C 8.7 g/m*3 10.1 C 0 km/h
443 06-06-2009 16:31:15 9.9 C 8.68 g/m*3 9.9 C 0 km/h
444 06-06-2009 16:43:15 10 C 8.64 g/m*3 10 C 0 km/h
445 06-06-2009 16:55:15 9.9 C 8.68 g/m*3 9.9 C 0 km/h
446 06-06-2009 17:07:15 9.9 C 8.59 g/m*3 9.9 C 0 km/h
447 06-06-2009 17:19:15 9.9 C 8.59 g/m*3 9.9 C 0 km/h
448 06-06-2009 17:31:14 10.1 C 8.61 g/m*3 10.1 C 0 km/h
449 06-06-2009 17:43:14 10.3 C 8.71 g/m*3 10.3 C 0 km/h
450 06-06-2009 17:55:15 10.4 C 8.67 g/m*3 10.4 C 0 km/h
Sensor: Nr:Datum:Temp:Abs-Feuchte:Windchill:Wind:
Aussen-T/F 451 06-06-2009 18:07:14 10.5 C 8.73 g/m*3 10.5 C 0 km/h
452 06-06-2009 18:19:14 10.9 C 8.95 g/m*3 10.9 C 0 km/h
453 06-06-2009 18:31:02 10.7 C 8.64 g/m*3 10.7 C 0 km/h
454 06-06-2009 18:43:02 10.8 C 8.7 g/m*3 10.8 C 0 km/h
455 06-06-2009 18:55:01 10.7 C 8.45 g/m*3 10.7 C 0 km/h
456 06-06-2009 19:07:02 10.8 C 8.5 g/m*3 10.8 C 0 km/h
457 06-06-2009 19:19:01 10.9 C 8.45 g/m*3 10.9 C 0 km/h
458 06-06-2009 19:31:01 11.1 C 8.56 g/m*3 11.1 C 0 km/h
459 06-06-2009 19:43:01 11 C 8.51 g/m*3 11 C 0 km/h
460 06-06-2009 19:55:01 10.9 C 8.65 g/m*3 10.9 C 0 km/h
461 06-06-2009 20:07:01 10.5 C 8.34 g/m*3 10.5 C 0 km/h
462 06-06-2009 20:19:00 10.4 C 8.29 g/m*3 10.4 C 0 km/h
463 06-06-2009 20:31:00 10.4 C 8.38 g/m*3 10.4 C 0 km/h
464 06-06-2009 20:43:00 10.4 C 8.38 g/m*3 10.4 C 0 km/h
465 06-06-2009 20:55:00 10.3 C 8.33 g/m*3 10.3 C 0 km/h
466 06-06-2009 21:07:00 10.3 C 8.43 g/m*3 10.3 C 0 km/h
467 06-06-2009 21:18:59 10.2 C 8.37 g/m*3 10.2 C 0 km/h
468 06-06-2009 21:31:00 10.2 C 8.37 g/m*3 10.2 C 0 km/h
469 06-06-2009 21:43:00 10.1 C 8.32 g/m*3 10.1 C 0 km/h
470 06-06-2009 21:55:59 9.8 C 8.26 g/m*3 9.8 C 0 km/h
471 06-06-2009 22:07:59 9.5 C 8.1 g/m*3 9.5 C 0 km/h
472 06-06-2009 22:19:00 9.4 C 8.14 g/m*3 9.4 C 0 km/h
473 06-06-2009 22:31:59 9.4 C 8.23 g/m*3 9.4 C 0 km/h
474 06-06-2009 22:43:59 9.5 C 8.28 g/m*3 9.5 C 0 km/h
475 06-06-2009 22:55:59 9.6 C 8.43 g/m*3 9.6 C 0 km/h
Sensor: Nr:Datum:Temp:Abs-Feuchte:Windchill:Wind:
Aussen-T/F 476 06-06-2009 23:07:59 9.5 C 8.37 g/m*3 9.5 C 0 km/h
477 06-06-2009 23:19:59 9.5 C 8.37 g/m*3 9.5 C 0 km/h
478 06-06-2009 23:31:58 9.2 C 8.13 g/m*3 9.2 C 0 km/h
479 06-06-2009 23:43:58 8.8 C 8.01 g/m*3 8.8 C 0 km/h
480 06-06-2009 23:55:59 8.5 C 7.85 g/m*3 8.5 C 0 km/h
481 07-06-2009 00:07:59 8.5 C 7.85 g/m*3 8.5 C 0 km/h
482 07-06-2009 00:19:59 8.3 C 7.75 g/m*3 8.3 C 0 km/h
483 07-06-2009 00:31:58 8.1 C 7.66 g/m*3 8.1 C 0 km/h
484 07-06-2009 00:43:58 7.9 C 7.64 g/m*3 7.9 C 0 km/h
485 07-06-2009 00:55:58 8 C 7.61 g/m*3 8 C 0 km/h
486 07-06-2009 01:07:57 8 C 7.69 g/m*3 8 C 0 km/h
487 07-06-2009 01:19:58 8 C 7.69 g/m*3 8 C 0 km/h
488 07-06-2009 01:31:58 7.9 C 7.72 g/m*3 7.9 C 0 km/h
489 07-06-2009 01:43:58 7.9 C 7.72 g/m*3 7.9 C 0 km/h
490 07-06-2009 01:55:57 8.1 C 7.74 g/m*3 8.1 C 0 km/h
491 07-06-2009 02:07:58 8.2 C 7.87 g/m*3 8.2 C 0 km/h
492 07-06-2009 02:19:57 8.4 C 7.97 g/m*3 8.4 C 0 km/h
493 07-06-2009 02:31:57 8.4 C 7.97 g/m*3 8.4 C 0 km/h
494 07-06-2009 02:43:57 8.4 C 7.97 g/m*3 8.4 C 0 km/h
495 07-06-2009 02:56:59 8.4 C 7.97 g/m*3 8.4 C 0 km/h
496 07-06-2009 03:08:59 8.5 C 8.11 g/m*3 8.5 C 0 km/h
497 07-06-2009 03:20:59 8.5 C 8.11 g/m*3 8.5 C 0 km/h
498 07-06-2009 03:32:58 8.5 C 8.11 g/m*3 8.5 C 0 km/h
499 07-06-2009 03:44:58 8.4 C 8.06 g/m*3 8.4 C 0 km/h
500 07-06-2009 03:56:58 8.4 C 8.06 g/m*3 8.4 C 0 km/h
Sensor: Nr:Datum:Temp:Abs-Feuchte:Windchill:Wind:
Aussen-T/F 501 07-06-2009 04:08:58 8.5 C 8.11 g/m*3 8.5 C 0 km/h
502 07-06-2009 04:20:58 8.5 C 8.11 g/m*3 8.5 C 0 km/h
503 07-06-2009 04:32:58 8.5 C 8.11 g/m*3 8.5 C 0 km/h
504 07-06-2009 04:44:57 8.5 C 8.11 g/m*3 8.5 C 0 km/h
505 07-06-2009 04:56:57 8.5 C 8.11 g/m*3 8.5 C 0 km/h
506 07-06-2009 05:08:58 8.6 C 8.16 g/m*3 8.6 C 0 km/h
507 07-06-2009 05:20:58 8.6 C 8.16 g/m*3 8.6 C 0 km/h
508 07-06-2009 05:32:57 8.6 C 8.16 g/m*3 8.6 C 0 km/h
509 07-06-2009 05:44:57 8.7 C 8.22 g/m*3 8.7 C 0 km/h
510 07-06-2009 05:56:57 8.8 C 8.27 g/m*3 8.8 C 0 km/h
511 07-06-2009 06:08:57 8.9 C 8.32 g/m*3 8.9 C 0 km/h
512 07-06-2009 06:20:57 9.1 C 8.34 g/m*3 9.1 C 0 km/h
513 07-06-2009 06:32:57 9.3 C 8.45 g/m*3 9.3 C 0 km/h
514 07-06-2009 06:44:57 9.5 C 8.56 g/m*3 9.5 C 0 km/h
515 07-06-2009 06:56:57 9.5 C 8.56 g/m*3 9.5 C 0 km/h
516 07-06-2009 07:08:57 9.6 C 8.61 g/m*3 9.6 C 0 km/h
517 07-06-2009 07:20:56 10 C 8.74 g/m*3 10 C 0 km/h
518 07-06-2009 07:32:57 10.2 C 8.76 g/m*3 10.2 C 0 km/h
519 07-06-2009 07:44:01 10.3 C 8.43 g/m*3 10.3 C 0 km/h
520 07-06-2009 07:56:01 10.7 C 8.45 g/m*3 10.7 C 0 km/h
521 07-06-2009 08:08:01 11 C 8.01 g/m*3 11 C 0 km/h
522 07-06-2009 08:20:01 11.4 C 8.01 g/m*3 11.4 C 0 km/h
523 07-06-2009 08:32:01 11.7 C 7.84 g/m*3 11.7 C 0 km/h
524 07-06-2009 08:44:01 11.9 C 7.52 g/m*3 11.9 C 0 km/h
525 07-06-2009 08:56:01 12.4 C 7.32 g/m*3 12.4 C 0 km/h
Sensor: Nr:Datum:Temp:Abs-Feuchte:Windchill:Wind:
Aussen-T/F 526 07-06-2009 09:08:01 13.1 C 7.42 g/m*3 13.1 C 0 km/h
527 07-06-2009 09:20:01 13.6 C 7.3 g/m*3 13.6 C 0 km/h
528 07-06-2009 09:32:00 14 C 7.48 g/m*3 14 C 0 km/h
529 07-06-2009 09:44:00 14.1 C 7.52 g/m*3 14.1 C 0 km/h
530 07-06-2009 09:56:00 14.3 C 7.62 g/m*3 14.3 C 0 km/h
531 07-06-2009 10:08:00 14.4 C 7.42 g/m*3 14.4 C 0 km/h
532 07-06-2009 10:20:59 14.9 C 7.77 g/m*3 14.9 C 0 km/h
533 07-06-2009 10:32:00 15.5 C 7.93 g/m*3 15.5 C 0 km/h
534 07-06-2009 10:44:00 15.9 C 7.72 g/m*3 15.9 C 0 km/h
535 07-06-2009 10:56:59 16.4 C 7.54 g/m*3 16.4 C 0 km/h
536 07-06-2009 11:08:59 16.9 C 7.91 g/m*3 16.9 C 0 km/h
537 07-06-2009 11:20:00 17.2 C 7.91 g/m*3 17.2 C 0 km/h
538 07-06-2009 11:32:59 17 C 7.81 g/m*3 17 C 0 km/h
539 07-06-2009 11:44:59 16.1 C 7.81 g/m*3 16.1 C 0 km/h
540 07-06-2009 11:56:59 17.5 C 7.9 g/m*3 17.5 C 0 km/h
541 07-06-2009 12:08:59 17.1 C 7.42 g/m*3 17.1 C 0 km/h
542 07-06-2009 12:20:59 17.7 C 7.69 g/m*3 17.7 C 0 km/h
543 07-06-2009 12:32:59 17.3 C 7.81 g/m*3 17.3 C 0 km/h
544 07-06-2009 12:44:58 17.1 C 8.3 g/m*3 17.1 C 0 km/h
545 07-06-2009 12:56:58 16.8 C 8.86 g/m*3 16.8 C 0 km/h
546 07-06-2009 13:08:59 16.6 C 8.48 g/m*3 16.6 C 0 km/h
547 07-06-2009 13:20:59 16.4 C 8.79 g/m*3 16.4 C 0 km/h
548 07-06-2009 13:32:59 17.4 C 8.89 g/m*3 17.4 C 0 km/h
549 07-06-2009 13:44:58 19.3 C 8.13 g/m*3 19.3 C 0 km/h
550 07-06-2009 13:56:58 19.2 C 7.91 g/m*3 19.2 C 0 km/h
Sensor: Nr:Datum:Temp:Abs-Feuchte:Windchill:Wind:
Aussen-T/F 551 07-06-2009 14:08:57 19.4 C 8.34 g/m*3 19.4 C 0 km/h
552 07-06-2009 14:20:58 18.9 C 8.26 g/m*3 18.9 C 0 km/h
553 07-06-2009 14:32:58 18.9 C 8.42 g/m*3 18.9 C 0 km/h
554 07-06-2009 14:44:57 18.7 C 8.65 g/m*3 18.7 C 0 km/h
555 07-06-2009 14:56:57 19.1 C 8.69 g/m*3 19.1 C 0 km/h
556 07-06-2009 15:08:58 19.1 C 8.36 g/m*3 19.1 C 0 km/h
557 07-06-2009 15:20:57 17.3 C 8.99 g/m*3 17.3 C 0 km/h
558 07-06-2009 15:32:58 16 C 10.22 g/m*3 16 C 0 km/h
559 07-06-2009 15:44:57 15.5 C 10.31 g/m*3 15.5 C 0 km/h
560 07-06-2009 15:56:57 15.1 C 10.45 g/m*3 15.1 C 0 km/h
561 07-06-2009 16:08:57 14.8 C 10.64 g/m*3 14.8 C 0 km/h
562 07-06-2009 16:20:56 15.6 C 11.57 g/m*3 15.6 C 0 km/h
563 07-06-2009 16:32:57 16 C 11.72 g/m*3 16 C 0 km/h
564 07-06-2009 16:44:56 16.3 C 11.52 g/m*3 16.3 C 0 km/h
565 07-06-2009 16:56:56 17.2 C 11.57 g/m*3 17.2 C 0 km/h
566 07-06-2009 17:08:56 17.6 C 10.8 g/m*3 17.6 C 0 km/h
567 07-06-2009 17:20:56 18.9 C 10.85 g/m*3 18.9 C 0 km/h
568 07-06-2009 17:32:56 19.5 C 10.07 g/m*3 19.5 C 0 km/h
569 07-06-2009 17:44:56 18.4 C 9.75 g/m*3 18.4 C 0 km/h
570 07-06-2009 17:56:56 18.3 C 9.85 g/m*3 18.3 C 0 km/h
571 07-06-2009 18:08:55 18.8 C 9.34 g/m*3 18.8 C 0 km/h
572 07-06-2009 18:20:56 17.3 C 7.51 g/m*3 17.3 C 0 km/h
573 07-06-2009 18:32:55 17 C 8.54 g/m*3 17 C 0 km/h
574 07-06-2009 18:44:55 18 C 8.29 g/m*3 18 C 0 km/h
575 07-06-2009 18:56:55 19.2 C 7.75 g/m*3 19.2 C 0 km/h
Sensor: Nr:Datum:Temp:Abs-Feuchte:Windchill:Wind:
Aussen-T/F 576 07-06-2009 19:08:55 20.4 C 7.61 g/m*3 20.4 C 0 km/h
577 07-06-2009 19:20:55 20.4 C 7.25 g/m*3 20.4 C 0 km/h
578 07-06-2009 19:32:55 20.3 C 7.03 g/m*3 20.3 C 0 km/h
579 07-06-2009 19:44:55 19.8 C 7.34 g/m*3 19.8 C 0 km/h
580 07-06-2009 19:56:55 20.3 C 7.39 g/m*3 20.3 C 0 km/h
581 07-06-2009 20:08:54 20.3 C 7.39 g/m*3 20.3 C 0 km/h
582 07-06-2009 20:20:55 20 C 7.09 g/m*3 20 C 0 km/h
583 07-06-2009 20:32:54 18.7 C 6.88 g/m*3 18.7 C 0 km/h
584 07-06-2009 20:44:54 17.6 C 7.05 g/m*3 17.6 C 0 km/h
585 07-06-2009 20:56:55 16.6 C 7.06 g/m*3 16.6 C 0 km/h
586 07-06-2009 21:08:53 16.1 C 6.99 g/m*3 16.1 C 0 km/h
587 07-06-2009 21:20:54 15.8 C 7.54 g/m*3 15.8 C 0 km/h
588 07-06-2009 21:32:54 15.2 C 7.79 g/m*3 15.2 C 0 km/h
589 07-06-2009 21:44:53 14.7 C 7.93 g/m*3 14.7 C 0 km/h
590 07-06-2009 21:56:53 14.1 C 7.77 g/m*3 14.1 C 0 km/h
591 07-06-2009 22:09:55 13.5 C 7.37 g/m*3 13.5 C 0 km/h
592 07-06-2009 22:21:55 13 C 7.03 g/m*3 13 C 0 km/h
593 07-06-2009 22:33:55 12.7 C 7.01 g/m*3 12.7 C 0 km/h
594 07-06-2009 22:45:55 12.5 C 6.93 g/m*3 12.5 C 0 km/h
595 07-06-2009 22:57:55 12.3 C 6.84 g/m*3 12.3 C 0 km/h
596 07-06-2009 23:09:55 12 C 6.71 g/m*3 12 C 0 km/h
597 07-06-2009 23:21:55 11.8 C 6.84 g/m*3 11.8 C 0 km/h
598 07-06-2009 23:33:55 11.6 C 6.96 g/m*3 11.6 C 0 km/h
599 07-06-2009 23:45:55 11.5 C 7.02 g/m*3 11.5 C 0 km/h
600 07-06-2009 23:57:55 11.3 C 7.04 g/m*3 11.3 C 0 km/h
Sensor: Nr:Datum:Temp:Abs-Feuchte:Windchill:Wind:
Aussen-T/F 601 08-06-2009 00:09:55 11.2 C 7.1 g/m*3 11.2 C 0 km/h
602 08-06-2009 00:21:55 11.3 C 7.14 g/m*3 11.3 C 0 km/h
603 08-06-2009 00:33:55 10.8 C 7.12 g/m*3 10.8 C 0 km/h
604 08-06-2009 00:45:55 10.6 C 7.22 g/m*3 10.6 C 0 km/h
605 08-06-2009 00:57:56 10.7 C 7.17 g/m*3 10.7 C 0 km/h
606 08-06-2009 01:09:56 10.7 C 7.07 g/m*3 10.7 C 0 km/h
607 08-06-2009 01:21:56 10.4 C 7.04 g/m*3 10.4 C 0 km/h
608 08-06-2009 01:33:56 10.1 C 7.09 g/m*3 10.1 C 0 km/h
609 08-06-2009 01:45:56 10.2 C 6.95 g/m*3 10.2 C 0 km/h
610 08-06-2009 01:57:56 10.6 C 6.83 g/m*3 10.6 C 0 km/h
611 08-06-2009 02:09:56 11.4 C 6.57 g/m*3 11.4 C 0 km/h
612 08-06-2009 02:21:56 11.7 C 6.69 g/m*3 11.7 C 0 km/h
613 08-06-2009 02:33:56 11.6 C 6.76 g/m*3 11.6 C 0 km/h
614 08-06-2009 02:45:56 11.6 C 6.76 g/m*3 11.6 C 0 km/h
615 08-06-2009 02:57:56 11.8 C 6.84 g/m*3 11.8 C 0 km/h
616 08-06-2009 03:09:56 11 C 7.41 g/m*3 11 C 0 km/h
617 08-06-2009 03:21:56 10.9 C 7.76 g/m*3 10.9 C 0 km/h
618 08-06-2009 03:33:56 11.2 C 7.8 g/m*3 11.2 C 0 km/h
619 08-06-2009 03:45:56 11.1 C 7.66 g/m*3 11.1 C 0 km/h
620 08-06-2009 03:57:56 11 C 7.61 g/m*3 11 C 0 km/h
621 08-06-2009 04:09:56 11.1 C 7.76 g/m*3 11.1 C 0 km/h
622 08-06-2009 04:21:56 11.1 C 7.76 g/m*3 11.1 C 0 km/h
623 08-06-2009 04:33:56 11.1 C 7.76 g/m*3 11.1 C 0 km/h
624 08-06-2009 04:45:56 11.1 C 7.76 g/m*3 11.1 C 0 km/h
625 08-06-2009 04:57:57 11.1 C 7.86 g/m*3 11.1 C 0 km/h
Sensor: Nr:Datum:Temp:Abs-Feuchte:Windchill:Wind:
Aussen-T/F 626 08-06-2009 05:09:57 11.2 C 7.91 g/m*3 11.2 C 0 km/h
627 08-06-2009 05:21:57 11.2 C 7.8 g/m*3 11.2 C 0 km/h
628 08-06-2009 05:33:57 11.2 C 7.91 g/m*3 11.2 C 0 km/h
629 08-06-2009 05:45:57 11.3 C 7.96 g/m*3 11.3 C 0 km/h
630 08-06-2009 05:57:57 11.5 C 7.75 g/m*3 11.5 C 0 km/h
631 08-06-2009 06:09:57 11.5 C 7.85 g/m*3 11.5 C 0 km/h
632 08-06-2009 06:21:57 11.5 C 7.85 g/m*3 11.5 C 0 km/h
633 08-06-2009 06:33:57 11.5 C 7.85 g/m*3 11.5 C 0 km/h
634 08-06-2009 06:45:55 11.5 C 8.06 g/m*3 11.5 C 0 km/h
635 08-06-2009 06:57:55 11.5 C 7.95 g/m*3 11.5 C 0 km/h
636 08-06-2009 07:09:54 11.8 C 8 g/m*3 11.8 C 0 km/h
637 08-06-2009 07:21:54 12 C 7.99 g/m*3 12 C 0 km/h
638 08-06-2009 07:33:54 12.3 C 8.25 g/m*3 12.3 C 0 km/h
639 08-06-2009 07:45:54 12.2 C 7.99 g/m*3 12.2 C 0 km/h
640 08-06-2009 07:57:54 12.3 C 7.82 g/m*3 12.3 C 0 km/h
641 08-06-2009 08:09:53 12.5 C 7.7 g/m*3 12.5 C 0 km/h
642 08-06-2009 08:21:54 12.7 C 7.57 g/m*3 12.7 C 0 km/h
643 08-06-2009 08:33:54 12.9 C 7.33 g/m*3 12.9 C 0 km/h
644 08-06-2009 08:45:53 13.2 C 7.46 g/m*3 13.2 C 0 km/h
645 08-06-2009 08:57:53 13.5 C 7.37 g/m*3 13.5 C 0 km/h
646 08-06-2009 09:09:53 13.8 C 7.15 g/m*3 13.8 C 0 km/h
647 08-06-2009 09:21:53 14.1 C 7.04 g/m*3 14.1 C 0 km/h
648 08-06-2009 09:33:53 14.6 C 6.88 g/m*3 14.6 C 0 km/h
649 08-06-2009 09:45:53 14.8 C 6.84 g/m*3 14.8 C 0 km/h
650 08-06-2009 09:57:53 15 C 6.67 g/m*3 15 C 0 km/h
Sensor: Nr:Datum:Temp:Abs-Feuchte:Windchill:Wind:
Aussen-T/F 651 08-06-2009 10:09:53 15.6 C 6.78 g/m*3 15.6 C 0 km/h
652 08-06-2009 10:21:52 15.9 C 6.37 g/m*3 15.9 C 0 km/h
653 08-06-2009 10:33:52 16.4 C 6.42 g/m*3 16.4 C 0 km/h
654 08-06-2009 10:45:52 16.5 C 6.18 g/m*3 16.5 C 0 km/h
655 08-06-2009 10:57:52 16.6 C 6.07 g/m*3 16.6 C 0 km/h
656 08-06-2009 11:09:52 17.7 C 6.49 g/m*3 17.7 C 0 km/h
657 08-06-2009 11:21:51 17.3 C 5.75 g/m*3 17.3 C 0 km/h
658 08-06-2009 11:33:52 17 C 6.08 g/m*3 17 C 0 km/h
659 08-06-2009 11:45:51 17.6 C 6.15 g/m*3 17.6 C 0 km/h
660 08-06-2009 11:57:51 18.1 C 6.03 g/m*3 18.1 C 0 km/h
661 08-06-2009 12:09:52 17.6 C 6 g/m*3 17.6 C 0 km/h
662 08-06-2009 12:21:51 20 C 6.22 g/m*3 20 C 0 km/h
663 08-06-2009 12:33:51 18.6 C 5.89 g/m*3 18.6 C 0 km/h
664 08-06-2009 12:45:51 20.2 C 6.12 g/m*3 20.2 C 0 km/h
665 08-06-2009 12:57:51 19.6 C 5.74 g/m*3 19.6 C 0 km/h
666 08-06-2009 13:09:51 21.6 C 4.74 g/m*3 21.6 C 0 km/h
667 08-06-2009 13:21:50 21.5 C 5.47 g/m*3 21.5 C 0 km/h
668 08-06-2009 13:33:51 20.9 C 5.1 g/m*3 20.9 C 0 km/h
669 08-06-2009 13:45:51 20.3 C 5.28 g/m*3 20.3 C 0 km/h
670 08-06-2009 13:57:51 21.4 C 5.06 g/m*3 21.4 C 0 km/h
671 08-06-2009 14:09:50 21.7 C 4.39 g/m*3 21.7 C 0 km/h
672 08-06-2009 14:21:50 21.5 C 4.71 g/m*3 21.5 C 0 km/h
673 08-06-2009 14:33:50 21.9 C 5.02 g/m*3 21.9 C 0 km/h
674 08-06-2009 14:45:50 21.7 C 4.96 g/m*3 21.7 C 0 km/h
675 08-06-2009 14:57:50 22.1 C 4.88 g/m*3 22.1 C 0 km/h
Sensor: Nr:Datum:Temp:Abs-Feuchte:Windchill:Wind:
Aussen-T/F 676 08-06-2009 15:09:49 22.9 C 5.11 g/m*3 22.9 C 0 km/h
677 08-06-2009 15:21:50 23 C 4.32 g/m*3 23 C 0 km/h
678 08-06-2009 15:33:50 22.7 C 4.24 g/m*3 22.7 C 0 km/h
679 08-06-2009 15:45:49 23.8 C 4.73 g/m*3 23.8 C 0 km/h
680 08-06-2009 15:57:49 23.3 C 4.39 g/m*3 23.3 C 0 km/h
681 08-06-2009 16:09:50 23.7 C 4.49 g/m*3 23.7 C 0 km/h
682 08-06-2009 16:21:49 24.7 C 4.53 g/m*3 24.7 C 0 km/h
683 08-06-2009 16:33:49 23.5 C 4.65 g/m*3 23.5 C 0 km/h
684 08-06-2009 16:45:49 23.2 C 4.57 g/m*3 23.2 C 0 km/h
685 08-06-2009 16:57:49 23.9 C 4.76 g/m*3 23.9 C 0 km/h
686 08-06-2009 17:09:49 23.8 C 4.73 g/m*3 23.8 C 0 km/h
687 08-06-2009 17:21:48 24.4 C 4.9 g/m*3 24.4 C 0 km/h
688 08-06-2009 17:33:48 24.3 C 5.09 g/m*3 24.3 C 0 km/h
689 08-06-2009 17:45:48 25.1 C 4.86 g/m*3 25.1 C 0 km/h
690 08-06-2009 17:57:48 24.1 C 4.81 g/m*3 24.1 C 0 km/h
691 08-06-2009 18:09:48 23.9 C 5.41 g/m*3 23.9 C 0 km/h
692 08-06-2009 18:21:48 23.7 C 5.99 g/m*3 23.7 C 0 km/h
693 08-06-2009 18:33:48 23.5 C 6.77 g/m*3 23.5 C 0 km/h
694 08-06-2009 18:45:48 22.8 C 7.32 g/m*3 22.8 C 0 km/h
695 08-06-2009 18:57:48 22.1 C 7.42 g/m*3 22.1 C 0 km/h
696 08-06-2009 19:09:47 21.6 C 7.59 g/m*3 21.6 C 0 km/h
697 08-06-2009 19:21:48 21 C 7.14 g/m*3 21 C 0 km/h
698 08-06-2009 19:33:47 20.8 C 7.6 g/m*3 20.8 C 0 km/h
699 08-06-2009 19:45:47 20.6 C 7.52 g/m*3 20.6 C 0 km/h
700 08-06-2009 19:57:48 20.4 C 7.61 g/m*3 20.4 C 0 km/h
Sensor: Nr:Datum:Temp:Abs-Feuchte:Windchill:Wind:
Aussen-T/F 701 08-06-2009 20:09:47 20.1 C 7.82 g/m*3 20.1 C 0 km/h
702 08-06-2009 20:21:47 19.8 C 8.03 g/m*3 19.8 C 0 km/h
703 08-06-2009 20:33:47 19.3 C 7.96 g/m*3 19.3 C 0 km/h
704 08-06-2009 20:45:47 18.8 C 8.05 g/m*3 18.8 C 0 km/h
705 08-06-2009 20:57:47 18.5 C 7.91 g/m*3 18.5 C 0 km/h
706 08-06-2009 21:09:47 18.2 C 7.77 g/m*3 18.2 C 0 km/h
707 08-06-2009 21:21:46 17.9 C 7.79 g/m*3 17.9 C 0 km/h
708 08-06-2009 21:33:46 17.6 C 8.1 g/m*3 17.6 C 0 km/h
709 08-06-2009 21:45:46 16.7 C 8.67 g/m*3 16.7 C 0 km/h
710 08-06-2009 21:57:46 16.6 C 8.9 g/m*3 16.6 C 0 km/h
711 08-06-2009 22:09:46 16.4 C 8.79 g/m*3 16.4 C 0 km/h
712 08-06-2009 22:21:46 16.6 C 8.76 g/m*3 16.6 C 0 km/h
713 08-06-2009 22:33:45 16.5 C 8.57 g/m*3 16.5 C 0 km/h
714 08-06-2009 22:46:46 16.4 C 8.51 g/m*3 16.4 C 0 km/h
715 08-06-2009 22:58:46 16.3 C 8.46 g/m*3 16.3 C 0 km/h
716 08-06-2009 23:10:46 16.4 C 8.51 g/m*3 16.4 C 0 km/h
717 08-06-2009 23:22:46 16.4 C 8.37 g/m*3 16.4 C 0 km/h
718 08-06-2009 23:34:46 16.5 C 8.43 g/m*3 16.5 C 0 km/h
719 08-06-2009 23:46:46 16.3 C 8.88 g/m*3 16.3 C 0 km/h
720 08-06-2009 23:58:46 16 C 8.99 g/m*3 16 C 0 km/h
721 09-06-2009 00:10:46 15.8 C 9.42 g/m*3 15.8 C 0 km/h
722 09-06-2009 00:22:46 15.4 C 9.59 g/m*3 15.4 C 0 km/h
723 09-06-2009 00:34:46 15.4 C 9.99 g/m*3 15.4 C 0 km/h
724 09-06-2009 00:46:46 15 C 10 g/m*3 15 C 0 km/h
725 09-06-2009 00:58:46 14.8 C 10.01 g/m*3 14.8 C 0 km/h
Sensor: Nr:Datum:Temp:Abs-Feuchte:Windchill:Wind:
Aussen-T/F 726 09-06-2009 01:10:46 14.6 C 10.14 g/m*3 14.6 C 0 km/h
727 09-06-2009 01:22:47 14.5 C 10.07 g/m*3 14.5 C 0 km/h
728 09-06-2009 01:34:47 14.6 C 10.26 g/m*3 14.6 C 0 km/h
729 09-06-2009 01:46:47 14.5 C 10.32 g/m*3 14.5 C 0 km/h
730 09-06-2009 01:58:47 14.6 C 10.26 g/m*3 14.6 C 0 km/h
731 09-06-2009 02:10:47 14.6 C 10.14 g/m*3 14.6 C 0 km/h
732 09-06-2009 02:22:47 14.7 C 10.2 g/m*3 14.7 C 0 km/h
733 09-06-2009 02:34:47 14.6 C 10.01 g/m*3 14.6 C 0 km/h
734 09-06-2009 02:46:47 14.3 C 9.95 g/m*3 14.3 C 0 km/h
735 09-06-2009 02:58:47 14.3 C 9.95 g/m*3 14.3 C 0 km/h
736 09-06-2009 03:10:47 14.4 C 10.01 g/m*3 14.4 C 0 km/h
737 09-06-2009 03:22:47 14.5 C 10.07 g/m*3 14.5 C 0 km/h
738 09-06-2009 03:34:47 14.5 C 10.07 g/m*3 14.5 C 0 km/h
739 09-06-2009 03:46:47 14.4 C 9.89 g/m*3 14.4 C 0 km/h
740 09-06-2009 03:58:47 14.4 C 9.89 g/m*3 14.4 C 0 km/h
741 09-06-2009 04:10:47 14.4 C 9.89 g/m*3 14.4 C 0 km/h
742 09-06-2009 04:22:47 14.4 C 10.01 g/m*3 14.4 C 0 km/h
743 09-06-2009 04:34:47 14.5 C 9.95 g/m*3 14.5 C 0 km/h
744 09-06-2009 04:46:47 14.6 C 9.89 g/m*3 14.6 C 0 km/h
745 09-06-2009 04:58:47 14.6 C 9.89 g/m*3 14.6 C 0 km/h
746 09-06-2009 05:10:48 14.5 C 9.83 g/m*3 14.5 C 0 km/h
747 09-06-2009 05:22:48 14.2 C 9.89 g/m*3 14.2 C 0 km/h
748 09-06-2009 05:34:48 14.1 C 10.07 g/m*3 14.1 C 0 km/h
749 09-06-2009 05:46:48 14 C 10.13 g/m*3 14 C 0 km/h
750 09-06-2009 05:58:48 14.1 C 10.32 g/m*3 14.1 C 0 km/h
Sensor: Nr:Datum:Temp:Abs-Feuchte:Windchill:Wind:
Aussen-T/F 751 09-06-2009 06:10:48 14 C 10.37 g/m*3 14 C 0 km/h
752 09-06-2009 06:22:48 14.1 C 10.56 g/m*3 14.1 C 0 km/h
753 09-06-2009 06:34:48 14.1 C 10.56 g/m*3 14.1 C 0 km/h
754 09-06-2009 06:46:48 14.1 C 10.56 g/m*3 14.1 C 0 km/h
755 09-06-2009 06:58:48 14.2 C 10.62 g/m*3 14.2 C 0 km/h
756 09-06-2009 07:10:48 14.3 C 10.44 g/m*3 14.3 C 0 km/h
757 09-06-2009 07:22:46 14.6 C 10.51 g/m*3 14.6 C 0 km/h
758 09-06-2009 07:34:01 14.8 C 10.64 g/m*3 14.8 C 0 km/h
759 09-06-2009 07:46:01 15 C 10.64 g/m*3 15 C 0 km/h
760 09-06-2009 07:58:01 15 C 10.26 g/m*3 15 C 0 km/h
761 09-06-2009 08:10:01 15.2 C 9.48 g/m*3 15.2 C 0 km/h
762 09-06-2009 08:22:01 15.2 C 9.22 g/m*3 15.2 C 0 km/h
763 09-06-2009 08:34:01 15.2 C 9.09 g/m*3 15.2 C 0 km/h
764 09-06-2009 08:46:01 15.3 C 9.53 g/m*3 15.3 C 0 km/h
765 09-06-2009 08:58:01 15.4 C 9.59 g/m*3 15.4 C 0 km/h
766 09-06-2009 09:10:00 15.4 C 9.59 g/m*3 15.4 C 0 km/h
767 09-06-2009 09:22:01 15.5 C 9.65 g/m*3 15.5 C 0 km/h
768 09-06-2009 09:34:00 15.9 C 9.48 g/m*3 15.9 C 0 km/h
769 09-06-2009 09:46:00 16.5 C 9.55 g/m*3 16.5 C 0 km/h
770 09-06-2009 09:58:01 16.8 C 8.86 g/m*3 16.8 C 0 km/h
771 09-06-2009 10:10:00 16.8 C 8.72 g/m*3 16.8 C 0 km/h
772 09-06-2009 10:22:00 16.9 C 8.63 g/m*3 16.9 C 0 km/h
773 09-06-2009 10:34:00 17.7 C 8.9 g/m*3 17.7 C 0 km/h
774 09-06-2009 10:45:59 18.1 C 8.34 g/m*3 18.1 C 0 km/h
775 09-06-2009 10:57:59 18.6 C 8.12 g/m*3 18.6 C 0 km/h
Sensor: Nr:Datum:Temp:Abs-Feuchte:Windchill:Wind:
Aussen-T/F 776 09-06-2009 11:10:00 18.5 C 7.91 g/m*3 18.5 C 0 km/h
777 09-06-2009 11:22:59 19.4 C 7.67 g/m*3 19.4 C 0 km/h
778 09-06-2009 11:34:59 20.1 C 7.47 g/m*3 20.1 C 0 km/h
779 09-06-2009 11:46:59 19.9 C 7.39 g/m*3 19.9 C 0 km/h
780 09-06-2009 11:58:59 20.8 C 7.06 g/m*3 20.8 C 0 km/h
781 09-06-2009 12:10:59 21.5 C 6.98 g/m*3 21.5 C 0 km/h
782 09-06-2009 12:22:59 21.9 C 7.14 g/m*3 21.9 C 0 km/h
783 09-06-2009 12:34:58 21.1 C 7 g/m*3 21.1 C 0 km/h
784 09-06-2009 12:46:59 22.5 C 6.99 g/m*3 22.5 C 0 km/h
785 09-06-2009 12:58:59 22.9 C 6.34 g/m*3 22.9 C 0 km/h
786 09-06-2009 13:10:58 23.3 C 6.48 g/m*3 23.3 C 0 km/h
787 09-06-2009 13:22:58 21.5 C 6.98 g/m*3 21.5 C 0 km/h
788 09-06-2009 13:34:58 21.5 C 6.79 g/m*3 21.5 C 0 km/h
789 09-06-2009 13:46:58 23.7 C 6.42 g/m*3 23.7 C 0 km/h
790 09-06-2009 13:58:59 22.3 C 6.52 g/m*3 22.3 C 0 km/h
791 09-06-2009 14:10:57 23.6 C 6.59 g/m*3 23.6 C 0 km/h
792 09-06-2009 14:22:57 24.2 C 6.6 g/m*3 24.2 C 0 km/h
793 09-06-2009 14:34:58 24.9 C 6.64 g/m*3 24.9 C 0 km/h
794 09-06-2009 14:46:01 23.8 C 6.67 g/m*3 23.8 C 0 km/h
795 09-06-2009 14:58:01 21.6 C 7.78 g/m*3 21.6 C 0 km/h
796 09-06-2009 15:10:01 19.3 C 8.63 g/m*3 19.3 C 0 km/h
797 09-06-2009 15:22:01 19.9 C 11.51 g/m*3 19.9 C 0 km/h
798 09-06-2009 15:34:01 21.9 C 10.81 g/m*3 21.9 C 0 km/h
799 09-06-2009 15:46:01 23.2 C 9.36 g/m*3 23.2 C 0 km/h
800 09-06-2009 15:58:01 21.7 C 10.49 g/m*3 21.7 C 0 km/h
Sensor: Nr:Datum:Temp:Abs-Feuchte:Windchill:Wind:
Aussen-T/F 801 09-06-2009 16:10:01 22.3 C 9.08 g/m*3 22.3 C 0 km/h
802 09-06-2009 16:22:00 23.9 C 8.22 g/m*3 23.9 C 0 km/h
803 09-06-2009 16:34:00 24.5 C 7.16 g/m*3 24.5 C 0 km/h
804 09-06-2009 16:46:00 24.8 C 6.83 g/m*3 24.8 C 0 km/h
805 09-06-2009 16:58:00 24.9 C 7.1 g/m*3 24.9 C 0 km/h
806 09-06-2009 17:10:00 26.1 C 7.1 g/m*3 26.1 C 0 km/h
807 09-06-2009 17:22:59 25.5 C 7.34 g/m*3 25.5 C 0 km/h
808 09-06-2009 17:34:00 25.3 C 7.02 g/m*3 25.3 C 0 km/h
809 09-06-2009 17:46:00 25.4 C 7.06 g/m*3 25.4 C 0 km/h
810 09-06-2009 17:58:00 24.4 C 7.12 g/m*3 24.4 C 0 km/h
811 09-06-2009 18:10:59 23.3 C 7.53 g/m*3 23.3 C 0 km/h
812 09-06-2009 18:22:00 21.9 C 7.72 g/m*3 21.9 C 0 km/h
813 09-06-2009 18:34:59 20 C 7.09 g/m*3 20 C 0 km/h
814 09-06-2009 18:46:59 19.2 C 7.42 g/m*3 19.2 C 0 km/h
815 09-06-2009 18:58:59 20.5 C 7.83 g/m*3 20.5 C 0 km/h
816 09-06-2009 19:10:59 20.4 C 7.61 g/m*3 20.4 C 0 km/h
817 09-06-2009 19:22:59 19.9 C 7.9 g/m*3 19.9 C 0 km/h
818 09-06-2009 19:34:59 19.7 C 8.15 g/m*3 19.7 C 0 km/h
819 09-06-2009 19:46:58 17.5 C 8.95 g/m*3 17.5 C 0 km/h
820 09-06-2009 19:58:58 16.5 C 10.11 g/m*3 16.5 C 0 km/h
821 09-06-2009 20:10:59 17.9 C 10.08 g/m*3 17.9 C 0 km/h
822 09-06-2009 20:22:58 18.9 C 9.4 g/m*3 18.9 C 0 km/h
823 09-06-2009 20:34:58 19.7 C 9 g/m*3 19.7 C 0 km/h
824 09-06-2009 20:46:58 19.3 C 8.96 g/m*3 19.3 C 0 km/h
825 09-06-2009 20:58:58 18.8 C 8.54 g/m*3 18.8 C 0 km/h
Sensor: Nr:Datum:Temp:Abs-Feuchte:Windchill:Wind:
Aussen-T/F 826 09-06-2009 21:10:58 18.4 C 8.81 g/m*3 18.4 C 0 km/h
827 09-06-2009 21:22:57 17.9 C 9.47 g/m*3 17.9 C 0 km/h
828 09-06-2009 21:34:58 17.2 C 8.93 g/m*3 17.2 C 0 km/h
829 09-06-2009 21:46:57 16.7 C 9.1 g/m*3 16.7 C 0 km/h
830 09-06-2009 21:58:57 16.3 C 9.16 g/m*3 16.3 C 0 km/h
831 09-06-2009 22:10:57 16 C 9.26 g/m*3 16 C 0 km/h
832 09-06-2009 22:23:58 15.7 C 9.37 g/m*3 15.7 C 0 km/h
833 09-06-2009 22:35:58 15.6 C 9.44 g/m*3 15.6 C 0 km/h
834 09-06-2009 22:47:58 15.8 C 9.29 g/m*3 15.8 C 0 km/h
835 09-06-2009 22:59:58 15.6 C 9.18 g/m*3 15.6 C 0 km/h
836 09-06-2009 23:11:58 15.4 C 9.33 g/m*3 15.4 C 0 km/h
837 09-06-2009 23:23:58 15.2 C 9.35 g/m*3 15.2 C 0 km/h
838 09-06-2009 23:35:58 15 C 9.23 g/m*3 15 C 0 km/h
839 09-06-2009 23:47:58 14.5 C 9.2 g/m*3 14.5 C 0 km/h
840 09-06-2009 23:59:58 14.4 C 9.27 g/m*3 14.4 C 0 km/h

Legende:
   Min
   Max


Maximal/Minimal-Werte vom 03.06.2009 - 09.06.2009

Sensor Min Max Avg
Temp
(Aussen-T/F)
7.1 °C
06-06-2009  04:43:21
26.1 °C
09-06-2009  17:10:00
14.38 °C
Abs-Feuchte
(Aussen-T/F)
3.3 g/m*3
05-06-2009  17:18:22
11.72 g/m*3
07-06-2009  16:32:57
6.53 g/m*3
Windchill
(Aussen-T/F)
7.1 C
06-06-2009  04:43:21
26.1 C
09-06-2009  17:10:00
14.36 C

Die Daten stammen von einer Davis Vantage Pro 2 Wetter-Station und werden unter Linux mit der Software wview2wettercgi und aufbereitet. Alle Angaben erfolgen ohne Gewähr für ihre Vollständigkeit oder Richtigkeit.
Kontakt: Rainer Krienke krienke@uni-koblenz.de . Meine Webseiten an der Uni Koblenz oder privat.
Version: $Revision: 0.78 $